Weather History for The Dalles, OR

Change the Weather History Date:

Wednesday, February 13, 2013

  Actual Average Record
Temperature  
Mean Temperature 52 °F -  
Max Temperature 57 °F 49 °F 63 °F (1971)
Min Temperature 46 °F 34 °F 15 °F (1949)
Degree Days  
Heating Degree Days 14    
Growing Degree Days 2 (Base 50)    
Moisture  
Dew Point 38 °F    
Average Humidity 63    
Maximum Humidity 74    
Minimum Humidity 48    
Precipitation  
Precipitation 0.00 in - - ()
Sea Level Pressure  
Sea Level Pressure 30.38 in    
Wind  
Wind Speed 14 mph (NW)    
Max Wind Speed 21 mph    
Max Gust Speed 25 mph    
Visibility 10 miles    
Events      
Averages and records for this station are not official NWS values.
T = Trace of Precipitation, MM = Missing Value Source: NWS Daily Summary

Daily Weather History Graph

Daily Weather History Graph

Search for Another Location

Airport:

Trip Planner

Search our weather history database for the weather conditions in past years. The results will help you decide how hot, cold, wet, or windy it might be!

Date:

Astronomy

Feb. 13, 2013 Rise Set
Actual Time 7:09 AM PST 5:29 PM PST
Civil Twilight 6:38 AM PST 5:59 PM PST
Nautical Twilight 6:03 AM PST 6:34 PM PST
Astronomical Twilight 5:29 AM PST 7:09 PM PST
Moon 8:27 AM PST (2/13) 9:53 PM PST (2/13)
Length of Visible Light 11h 21m
Length of Day
10h 20m
Waxing Crescent, 14% of the Moon is Illuminated
Feb 13
Waxing Crescent
Feb 17
First Quarter
Feb 25
Full
Mar 4
Last Quarter
Mar 11
New

Hourly Weather History & Observations

Time (PST) Temp. Windchill Dew Point Humidity Pressure Visibility Wind Dir Wind Speed Gust Speed Precip Events Conditions
12:53 AM 50.0 °F - 39.9 °F 68% 30.34 in 10.0 mi NNW 15.0 mph - N/A   Overcast
1:53 AM 50.0 °F - 39.9 °F 68% 30.35 in 10.0 mi NNW 17.3 mph - N/A   Overcast
2:53 AM 50.0 °F - 41.0 °F 71% 30.34 in 10.0 mi NNW 12.7 mph - N/A   Overcast
3:53 AM 50.0 °F - 41.0 °F 71% 30.33 in 10.0 mi NNW 12.7 mph - N/A   Overcast
4:53 AM 50.0 °F - 39.9 °F 68% 30.34 in 10.0 mi NNW 12.7 mph - N/A   Overcast
5:53 AM 48.9 °F - 39.9 °F 71% 30.35 in 10.0 mi NNW 12.7 mph - N/A   Overcast
6:53 AM 48.9 °F - 39.9 °F 71% 30.35 in 10.0 mi NNW 11.5 mph - N/A   Overcast
7:53 AM 48.9 °F - 41.0 °F 74% 30.37 in 10.0 mi NNW 12.7 mph - N/A   Overcast
8:53 AM 50.0 °F - 41.0 °F 71% 30.38 in 10.0 mi NNW 13.8 mph - N/A   Overcast
9:53 AM 51.1 °F - 41.0 °F 68% 30.39 in 10.0 mi NNW 16.1 mph - N/A   Mostly Cloudy
10:53 AM 55.0 °F - 42.1 °F 62% 30.39 in 10.0 mi NNW 13.8 mph - N/A   Partly Cloudy
11:53 AM 57.0 °F - 41.0 °F 55% 30.38 in 10.0 mi NW 16.1 mph - N/A   Partly Cloudy
12:53 PM 55.0 °F - 37.0 °F 51% 30.37 in 10.0 mi NW 11.5 mph - N/A   Clear
1:53 PM 54.0 °F - 36.0 °F 51% 30.35 in 10.0 mi WNW 20.7 mph 25.3 mph N/A   Clear
2:53 PM 53.1 °F - 34.0 °F 48% 30.36 in 10.0 mi WNW 16.1 mph 24.2 mph N/A   Partly Cloudy
3:53 PM 54.0 °F - 35.1 °F 49% 30.38 in 10.0 mi WNW 15.0 mph - N/A   Clear
4:53 PM 52.0 °F - 34.0 °F 50% 30.38 in 10.0 mi NW 13.8 mph - N/A   Clear
5:53 PM 48.9 °F - 36.0 °F 61% 30.38 in 10.0 mi NW 10.4 mph - N/A   Clear
6:53 PM 48.9 °F - 37.0 °F 64% 30.41 in 10.0 mi WNW 18.4 mph 24.2 mph N/A   Clear
7:53 PM 48.0 °F - 36.0 °F 63% 30.42 in 10.0 mi NNW 8.1 mph - N/A   Clear
8:53 PM 46.9 °F - 34.0 °F 61% 30.44 in 10.0 mi NW 12.7 mph - N/A   Clear
9:53 PM 48.0 °F - 34.0 °F 58% 30.43 in 10.0 mi WNW 20.7 mph - N/A   Clear
10:53 PM 46.0 °F 42.5 °F 34.0 °F 63% 30.46 in 10.0 mi Variable 6.9 mph - N/A   Clear
11:53 PM 46.0 °F 40.6 °F 35.1 °F 66% 30.46 in 10.0 mi WNW 11.5 mph - N/A   Clear